[[{"header":{"parameterUnit":"m.s-1","parameterCategory":1,"la1":30.2991,"la2":30.254,"lo1":-89.0895,"lo2":-89.0444,"dy":0.0017,"dx":0.0017,"nx":28,"ny":28,"refTime":"2025-04-26T09:00:00:Z","depth":0,"parameterNumber":2,"parameterNumberName":"U-component_of_WINDS"},"data":[0,0,0,0,0,0,0,0,0,0,0,0,0,0,0,0,0,0,0,0,0,0,0,0,0,0,0,0,0,0,0,0,0,0,0,0,0,0,0,0,0,0,0,0,0,0,0,0,0,0,0,0,0,0,0,0,0,0,0.3894,0.3895,0,0.3991,0.3992,0.3993,0.4017,0.4016,0.4016,0.4015,0.4114,0.4117,0.4121,0,0,0,0,0,0,0,0,0,0,0,0,0,0.3728,0.3731,0.3894,0.3895,0.3896,0.3991,0.3992,0.3993,0.4017,0.4016,0.4015,0.4015,0.4113,0.4117,0.4121,0,0,0,0,0,0,0,0,0,0,0,0,0,0.381,0.3732,0.3894,0.392,0.3923,0.399,0.3992,0.3994,0.4017,0.4016,0.4015,0.4014,0.4112,0.4117,0.4121,0.417,0,0,0.4136,0.4138,0,0,0,0,0,0,0,0,0.3806,0.3816,0.3915,0.3918,0.3922,0.3991,0.397,0.4053,0.4017,0.3981,0.4015,0.4014,0.4074,0.4082,0.4102,0.4175,0.4179,0.4137,0.414,0.4142,0.4143,0,0,0,0,0,0,0,0.38,0.3812,0.3932,0.3916,0.392,0.3926,0.3936,0.3986,0.4032,0.3984,0.3986,0.3997,0.4076,0.4097,0.4105,0.4181,0.4136,0.4141,0.4144,0.4146,0.4297,0.4298,0,0,0,0,0,0,0.379,0.3807,0.3929,0.3935,0.386,0.393,0.3941,0.397,0.4031,0.404,0.3998,0.3998,0.409,0.4099,0.4108,0.4169,0.4142,0.4146,0.4149,0.4296,0.4297,0.4299,0,0,0,0,0,0,0.3786,0.38,0.3925,0.3872,0.3888,0.3934,0.3965,0.3972,0.3994,0.4042,0.405,0.4012,0.4089,0.4101,0.4154,0.4172,0.4148,0.4153,0.4295,0.4296,0.4298,0.429,0,0,0,0,0,0,0.3781,0.3799,0.3818,0.3872,0.3891,0.397,0.3966,0.3975,0.4002,0.4003,0.4057,0.4065,0.4089,0.4147,0.4159,0.4179,0.4157,0.4293,0.4296,0.4297,0.4289,0.4292,0.4294,0,0,0,0,0,0.3775,0.3813,0.3819,0.3834,0.3916,0.3971,0.3982,0.4009,0.4003,0.4023,0.4054,0.4063,0.4168,0.4152,0.4166,0.4187,0.4292,0.4295,0.4297,0.4288,0.4291,0.4294,0,0,0,0,0,0,0.376,0.382,0.3828,0.3884,0.3922,0.3975,0.4001,0.4012,0.4053,0.4052,0.4084,0.4096,0.4147,0.4172,0.4153,0.4237,0.423,0.4236,0.4219,0.4222,0.4224,0.4217,0.4161,0,0,0,0,0,0.3763,0.3803,0.3853,0.3898,0.3917,0.3955,0.398,0.3998,0.4039,0.4055,0.409,0.4129,0.4171,0.4198,0.4239,0.4293,0.4305,0.4314,0.4317,0.4318,0.4322,0.4352,0.4356,0.4307,0.4307,0.4307,0,0,0.377,0.3808,0.3831,0.3896,0.3927,0.3968,0.3969,0.4011,0.4041,0.4062,0.4114,0.414,0.4186,0.4239,0.4265,0.4262,0.4339,0.4321,0.4322,0.4326,0.4355,0.4359,0.4364,0.4309,0.4308,0.4308,0,0,0.3803,0.3836,0.3876,0.3908,0.3956,0.3981,0.399,0.4041,0.406,0.4112,0.4128,0.4164,0.4236,0.4267,0.4293,0.4336,0.4346,0.4349,0.436,0.4388,0.4392,0.4396,0.4411,0.4416,0.4353,0.4353,0.4353,0,0.3806,0.3867,0.3895,0.3937,0.3965,0.3984,0.4025,0.4054,0.4113,0.4131,0.4128,0.4217,0.425,0.431,0.4321,0.4341,0.4352,0.4343,0.439,0.4393,0.4397,0.4412,0.4417,0.4353,0.4353,0.4353,0.4353,0,0.3867,0.3909,0.3936,0.3992,0.4023,0.4063,0.4097,0.4125,0.4139,0.4165,0.4217,0.4257,0.4306,0.4322,0.4337,0.4384,0.4381,0.4383,0.4377,0.4401,0.4415,0.4421,0.4353,0.4353,0.4353,0.4353,0,0,0.3894,0.3964,0.3974,0.3999,0.4052,0.4085,0.4127,0.4174,0.4197,0.4236,0.4271,0.4331,0.4333,0.4362,0.438,0.4405,0.4436,0.4404,0.4406,0.4408,0.4489,0.4487,0.4493,0.4443,0.4444,0.4445,0.4485,0,0.3933,0.4008,0.4034,0.4095,0.4134,0.4153,0.4189,0.4225,0.425,0.4286,0.4313,0.4354,0.4354,0.4372,0.4397,0.4427,0.4453,0.4424,0.4475,0.4477,0.4463,0.4501,0.4499,0.4535,0.4491,0.4492,0.4493,0,0.3989,0.4029,0.4094,0.4142,0.4159,0.4191,0.4236,0.4271,0.4312,0.4328,0.4359,0.4376,0.4419,0.441,0.4469,0.445,0.4472,0.4489,0.4491,0.4497,0.4486,0.4507,0.4547,0.4552,0.4502,0.4501,0.45,0,0.4001,0.4071,0.4119,0.414,0.4197,0.4219,0.4243,0.4284,0.431,0.435,0.4367,0.4411,0.4435,0.4468,0.4496,0.4487,0.4553,0.4546,0.4567,0.4566,0.458,0.4579,0.4624,0.4595,0.4595,0.4595,0.4595,0,0.4041,0.408,0.4125,0.4154,0.4198,0.4227,0.427,0.4295,0.4331,0.4365,0.4384,0.4416,0.4451,0.4487,0.4509,0.4554,0.4565,0.4579,0.4584,0.4577,0.4575,0.4592,0.459,0.4596,0.4596,0.4596,0.4595,0,0.4062,0.4093,0.4147,0.4196,0.4209,0.4239,0.4282,0.431,0.4335,0.4378,0.439,0.4429,0.4473,0.4504,0.456,0.4574,0.4623,0.4628,0.4609,0.4611,0.463,0.4627,0.4687,0.4696,0.4661,0.4662,0.4662,0,0.4086,0.4116,0.4169,0.4193,0.4218,0.4257,0.4284,0.4313,0.4341,0.4389,0.4412,0.4457,0.4494,0.4562,0.4595,0.4638,0.4644,0.4662,0.4651,0.4642,0.4644,0.4641,0.4644,0.4664,0.4664,0.4664,0.4664,0,0.4124,0.4138,0.4176,0.422,0.4252,0.4287,0.4323,0.4342,0.4378,0.4408,0.4452,0.4481,0.4537,0.4581,0.4627,0.4652,0.4664,0.4667,0.4674,0.4667,0.4654,0.4661,0.4613,0.4666,0.4666,0.4666,0.4666,0.4666,0.4147,0.4174,0.4215,0.4257,0.4287,0.432,0.4349,0.4378,0.4415,0.4464,0.4479,0.4524,0.4564,0.4626,0.4652,0.4688,0.4687,0.4697,0.47,0.4702,0.4701,0.4649,0.4696,0.4696,0.4696,0.4696,0.4696,0,0.4185,0.4213,0.4251,0.43,0.4333,0.4341,0.4381,0.4408,0.4448,0.4484,0.452,0.457,0.4612,0.4648,0.4692,0.4714,0.472,0.4724,0.4723,0.4728,0.4699,0.4689,0.4718,0.4718,0.4718,0.4718,0.4718,0.4718,0.4209,0.4256,0.4274,0.4336,0.4363,0.4407,0.4429,0.446,0.4488,0.4544,0.4579,0.4602,0.4638,0.4684,0.4723,0.4732,0.4747,0.4749,0.476,0.4733,0.473,0.4728,0.4718,0.4752,0.4752,0.4785,0.4786,0.4786]},{"header":{"parameterUnit":"m.s-1","parameterCategory":1,"la1":30.2991,"la2":30.254,"lo1":-89.0895,"lo2":-89.0444,"dy":0.0017,"dx":0.0017,"nx":28,"ny":28,"refTime":"2025-04-26T09:00:00:Z","depth":0,"parameterNumber":3,"parameterNumberName":"V-component_of_WINDS"},"data":[0,0,0,0,0,0,0,0,0,0,0,0,0,0,0,0,0,0,0,0,0,0,0,0,0,0,0,0,0,0,0,0,0,0,0,0,0,0,0,0,0,0,0,0,0,0,0,0,0,0,0,0,0,0,0,0,0,0,2.6545,2.6545,0,2.6524,2.6523,2.6523,2.6472,2.6471,2.647,2.6469,2.6449,2.6449,2.645,0,0,0,0,0,0,0,0,0,0,0,0,0,2.6542,2.6542,2.6545,2.6545,2.6544,2.6524,2.6523,2.6523,2.6472,2.6471,2.647,2.6469,2.6449,2.6449,2.645,0,0,0,0,0,0,0,0,0,0,0,0,0,2.6534,2.6542,2.6545,2.6516,2.6514,2.6524,2.6523,2.6523,2.6473,2.6471,2.647,2.6468,2.6448,2.6449,2.645,2.6486,0,0,2.6452,2.6452,0,0,0,0,0,0,0,0,2.6535,2.6535,2.6521,2.6518,2.6515,2.6499,2.6515,2.6511,2.6473,2.6488,2.6469,2.6467,2.6467,2.6466,2.6465,2.6485,2.6484,2.6452,2.6452,2.6453,2.6453,0,0,0,0,0,0,0,2.6535,2.6535,2.6536,2.6521,2.6517,2.6505,2.6502,2.6514,2.6487,2.6487,2.6483,2.6481,2.6465,2.6465,2.6465,2.6484,2.6452,2.6452,2.6453,2.6453,2.6532,2.6534,0,0,0,0,0,0,2.654,2.6536,2.6537,2.6536,2.6521,2.6506,2.6503,2.6506,2.6487,2.6482,2.6483,2.6479,2.6465,2.6464,2.6464,2.6505,2.6453,2.6453,2.6454,2.653,2.6532,2.6534,0,0,0,0,0,0,2.654,2.6541,2.6538,2.6535,2.6534,2.6508,2.6512,2.6506,2.6506,2.6483,2.6478,2.6488,2.6463,2.6463,2.6481,2.6503,2.6453,2.6454,2.6528,2.6531,2.6533,2.6587,0,0,0,0,0,0,2.654,2.6541,2.6554,2.6536,2.6534,2.6555,2.6513,2.6507,2.6507,2.6502,2.6487,2.6482,2.6462,2.648,2.6481,2.6503,2.6455,2.6526,2.6529,2.6532,2.6583,2.6591,2.6598,0,0,0,0,0,2.654,2.6571,2.6555,2.6556,2.655,2.6557,2.6556,2.6531,2.6509,2.6523,2.6508,2.6483,2.6501,2.6482,2.6483,2.6506,2.6525,2.6528,2.6532,2.658,2.659,2.6598,0,0,0,0,0,0,2.6593,2.6568,2.655,2.6575,2.6569,2.6548,2.6564,2.6542,2.6542,2.6537,2.6507,2.6504,2.6526,2.6518,2.6498,2.654,2.6509,2.6513,2.6545,2.6554,2.6561,2.6563,2.6455,0,0,0,0,0,2.6608,2.6615,2.6592,2.6617,2.6614,2.659,2.6592,2.6573,2.6565,2.6562,2.6549,2.6542,2.6546,2.6549,2.6552,2.6582,2.6578,2.6598,2.6605,2.6612,2.6616,2.6631,2.6639,2.6547,2.6547,2.6546,0,0,2.6638,2.6625,2.6631,2.6627,2.662,2.6628,2.6588,2.6598,2.6604,2.6564,2.658,2.657,2.656,2.6585,2.6595,2.6578,2.664,2.6616,2.6622,2.6622,2.6636,2.6644,2.6652,2.6549,2.6549,2.6548,0,0,2.6697,2.6688,2.6707,2.6701,2.669,2.6673,2.6678,2.6661,2.6652,2.6668,2.6637,2.6644,2.6652,2.6646,2.6644,2.6701,2.6678,2.6703,2.6742,2.6757,2.6764,2.677,2.6791,2.6798,2.6707,2.6707,2.6707,0,2.6737,2.6748,2.672,2.6733,2.6732,2.6695,2.6714,2.6709,2.67,2.67,2.6682,2.669,2.6681,2.6703,2.6717,2.6717,2.6721,2.6705,2.6765,2.6771,2.6777,2.6796,2.6804,2.671,2.671,2.671,2.6709,0,2.6796,2.6804,2.6821,2.6812,2.6813,2.6829,2.6804,2.6809,2.679,2.6776,2.6792,2.678,2.6779,2.6783,2.6765,2.6803,2.6793,2.6771,2.6738,2.6789,2.6807,2.6814,2.6715,2.6713,2.6713,2.6712,0,0,2.6889,2.6864,2.6871,2.6866,2.6851,2.6857,2.6871,2.687,2.6874,2.6869,2.688,2.6887,2.6866,2.6864,2.6845,2.6859,2.6905,2.6834,2.6834,2.6848,2.6945,2.6962,2.6971,2.6889,2.689,2.6891,2.6946,0,2.6944,2.6967,2.6942,2.697,2.6977,2.6942,2.6955,2.6947,2.6934,2.6938,2.6924,2.6929,2.6901,2.69,2.6911,2.6897,2.6924,2.6892,2.69,2.69,2.6903,2.698,2.6998,2.7051,2.6953,2.6954,2.6955,0,2.7013,2.701,2.7038,2.7021,2.7023,2.7035,2.7031,2.7036,2.7026,2.7016,2.7014,2.6991,2.7004,2.6972,2.699,2.6969,2.697,2.6964,2.6965,2.6965,2.6931,2.6982,2.7067,2.7075,2.6965,2.6964,2.6963,0,2.7077,2.7081,2.7098,2.7095,2.7076,2.7085,2.7077,2.7066,2.7066,2.7064,2.7064,2.7063,2.7063,2.7063,2.704,2.7019,2.706,2.7027,2.7052,2.7053,2.7063,2.7062,2.7149,2.7064,2.7064,2.7063,2.7063,0,2.7142,2.7161,2.7127,2.7137,2.7157,2.7129,2.715,2.7138,2.7129,2.7137,2.7107,2.7115,2.7085,2.709,2.7073,2.709,2.709,2.7082,2.7077,2.7085,2.7086,2.7085,2.7081,2.7065,2.7065,2.7065,2.7064,0,2.7218,2.7196,2.7212,2.7192,2.7187,2.7203,2.7186,2.7195,2.718,2.719,2.7191,2.7168,2.7172,2.715,2.715,2.7138,2.7164,2.7153,2.7168,2.7164,2.7191,2.7189,2.728,2.729,2.7199,2.72,2.72,0,2.7261,2.7274,2.7255,2.7258,2.7252,2.7257,2.7258,2.7231,2.7232,2.7222,2.7233,2.7235,2.7235,2.7244,2.7227,2.7227,2.7216,2.7248,2.7216,2.7223,2.7216,2.7216,2.7217,2.7254,2.7256,2.7257,2.7257,0,2.7339,2.7328,2.7329,2.7327,2.7328,2.7325,2.732,2.7325,2.7295,2.7299,2.7302,2.7303,2.7303,2.7305,2.7302,2.7294,2.7271,2.7267,2.7273,2.7281,2.7289,2.7285,2.7186,2.7266,2.7265,2.7264,2.7264,2.7263,2.74,2.741,2.7399,2.7401,2.7395,2.7391,2.7398,2.7383,2.7386,2.7384,2.7368,2.7375,2.7365,2.7358,2.7352,2.7358,2.7343,2.7351,2.7353,2.7356,2.7361,2.7288,2.7357,2.7357,2.7356,2.7356,2.7356,0,2.7477,2.7468,2.7471,2.7464,2.7466,2.7444,2.7437,2.7441,2.7447,2.7439,2.744,2.7444,2.7446,2.7429,2.7429,2.7437,2.7426,2.7438,2.7437,2.7435,2.7374,2.7369,2.7446,2.7446,2.7446,2.7446,2.7446,2.7446,2.7518,2.7534,2.7521,2.7533,2.7524,2.753,2.7528,2.7524,2.7518,2.7524,2.7525,2.7514,2.7503,2.7501,2.7502,2.7497,2.7499,2.7514,2.7506,2.7449,2.744,2.7431,2.7427,2.7514,2.7515,2.7566,2.7567,2.7567]}]]